Flag for U.S.A. Weather past 2 weeks in Lynchburg, Virginia, U.S.A.

Now
31 °F

Sunny.


Feels Like: 31 °F
Forecast: 28 / 52 °F
Wind: No wind

Location: Lynchburg Regional Airport

Current Time: Dec 26, 2014 at 9:23:02 AM

Latest Report: Dec 26, 2014 at 8:54 AM


Visibility: 10 mi

Pressure: 30.33 "Hg

Humidity: 96%

Dew point: 30 °F

Location of LynchburgLocation

Historic Weather in Lynchburg — Graph

°F

Lynchburg temperature yesterday

Maximum temperature yesterday: 51 °F (at 11:54 AM)
Minimum temperature yesterday: 28 °F (at 11:54 PM)
Average temperature yesterday: 45 °F

Past Weeks' High & Low Weather Summary

 TemperatureHumidityPressure
High57 °F (Dec 13, 2:54 PM)100% (Dec 15, 7:54 AM)30.34 "Hg (Dec 15, 7:54 AM)
Low24 °F (Dec 13, 5:54 AM)21% (Dec 12, 12:54 PM)29.63 "Hg (Dec 24, 11:02 PM)
Average39 °F73%30.08 "Hg
* Reported Dec 11 7:54 AM — Dec 26 7:54 AM, Lynchburg, Weather by CustomWeather, © 2014

Note: Actual official high and low records may vary slightly from our data, if they occured in-between our weather recording intervals... More about our weather records

Advertising

Lynchburg weather history for previous 24 hours

 ConditionsComfort  
Time TempWeatherWind HumidityBarometerVisibility
7:54 AM
Dec 26
24 °FSunny.No wind100%30.33 "Hg10 mi
6:54 AM24 °FClear.No wind96%30.31 "Hg10 mi
5:54 AM24 °FClear.No wind96%30.28 "Hg10 mi
4:54 AM26 °FClear.3 mph100%30.27 "Hg10 mi
3:54 AM24 °FClear.No wind100%30.27 "Hg10 mi
2:54 AM27 °FClear.3 mph92%30.27 "Hg10 mi
1:54 AM27 °FClear.No wind96%30.25 "Hg10 mi
12:54 AM28 °FClear.No wind93%30.25 "Hg10 mi
11:54 PM
Dec 25
28 °FClear.No wind93%30.25 "Hg10 mi
10:54 PM30 °FClear.No wind92%30.24 "Hg10 mi
9:54 PM30 °FClear.3 mph92%30.24 "Hg10 mi
8:54 PM34 °FClear.No wind82%30.24 "Hg10 mi
7:54 PM37 °FClear.3 mph76%30.22 "Hg10 mi
6:54 PM42 °FClear.3 mph62%30.19 "Hg10 mi
5:54 PM44 °FClear.3 mph58%30.15 "Hg10 mi
4:54 PM46 °FSunny.5 mph54%30.13 "Hg10 mi
3:54 PM50 °FSunny.6 mph44%30.10 "Hg10 mi
2:54 PM51 °FSunny.8 mph44%30.08 "Hg10 mi
1:54 PM51 °FSunny.10 mph44%30.05 "Hg10 mi
12:54 PM51 °FSunny.9 mph44%30.03 "Hg10 mi
11:54 AM51 °FSunny.9 mph44%30.02 "Hg10 mi
10:54 AM48 °FSunny.14 mph50%30.00 "Hg10 mi
9:54 AM47 °FOvercast.12 mph54%29.99 "Hg10 mi
Weather by CustomWeather, © 2014

See weather overviewHow to use our weather pages